Regional Weather Roundup
Issued by NWS State College, PA

Home | Current Version | Previous Version | Text Only | Print | Product List | Glossary On
Versions: 1 2 3 4 5 6 7 8 9 10 11 12 13 14 15 16 17 18 19 20 21 22 23 24 25 26 27 28 29 30 31 32 33 34 35 36 37 38 39 40 41 42 43 44 45 46 47 48 49 50
000
ASUS41 KCTP 091203
RWRCTP

REGIONAL WEATHER ROUNDUP
NATIONAL WEATHER SERVICE STATE COLLEGE PA
700 AM EST FRI DEC 09 2016

Note: "fair" indicates few or no clouds below 12,000 feet with no
significant weather and/or obstructions to visibility.

* = STATION THAT DOES NOT REPORT PRECIPITATION /E.G. RAIN...SNOW...ETC/
    THUNDER OR FOG.

PAZ002>004-007>009-013>016-020>023-029>032-091300-
WESTERN PENNSYLVANIA

CITY           SKY/WX    TMP DP  RH WIND       PRES   REMARKS
ERIE           CLOUDY    32  20  61 W20G28    30.22R
MEADVILLE      LGT SNOW  21  18  88 W13       30.21S VSB 1   WCI   9
FRANKLIN*        N/A     21  16  79 W14G20    30.22R WCI   8
NEW CASTLE     FLURRIES  23  18  81 W12       30.29R WCI  12
BEAVER COUNTY  NOT AVBL
BUTLER*        CLOUDY    21  16  79 W14       30.30R WCI   8
PITTSBURGH INT FLURRIES  23  17  78 W8G20     30.29R WCI  14
PITTSBURGH     CLOUDY    22  14  71 W14G21    30.28R WCI   9
INDIANA*       CLOUDY    23  19  86 W13       30.27R WCI  11
LATROBE        FLURRIES  23  16  74 W12       30.30R WCI  12
WASHINGTON CO* CLOUDY    21  16  79 SW9       30.33R WCI  11
$$

PAZ004>006-010>012-017>019-024>028-033>037-041-042-045-046-049>053-091300-
CENTRAL PENNSYLVANIA

CITY           SKY/WX    TMP DP  RH WIND       PRES   REMARKS
BRADFORD       LGT SNOW  21  18  88 W9        30.09R FOG     WCI  11
DUBOIS         LGT SNOW  21  16  81 W21       30.15R WCI   5
CLEARFIELD     CLOUDY    24  18  77 W12G25    30.17R WCI  13
JOHNSTOWN      LGT SNOW  18  15  88 W17G24    30.15S FOG     WCI   3
ALTOONA        CLOUDY    24  16  71 W15       30.20R WCI  11
STATE COLLEGE  CLOUDY    25  18  74 W14G21    30.17R WCI  13
WILLIAMSPORT   PTCLDY    29  19  66 W9        30.14R
SELINSGROVE    CLOUDY    29  19  66 W9        30.18R
FT INDIANTOWN  CLOUDY    29  16  57 W8G25     30.18R
CAPITAL CITY   MOCLDY    29  16  58 W8        30.22R
HARRISBURG     CLOUDY    30  18  60 W7        30.21R
YORK           CLEAR     26  16  65 W7        30.22R
$$

PAZ038>040-043-044-047-048-054-055-060>062-067>071-091300-
EASTERN PENNSYLVANIA

CITY           SKY/WX    TMP DP  RH WIND       PRES   REMARKS
SCRANTON       CLOUDY    28  20  71 SW10      30.07R
MOUNT POCONO   CLOUDY    22  17  81 W14G20    30.00R WCI   9
ALLENTOWN      PTCLDY    30  17  58 W13       30.13R
QUAKERTOWN*    MOSUNNY   28  18  64 W8G17     30.12S
READING        PTCLDY    29  16  58 W9        30.16R
LANCASTER      PTCLDY    28  18  66 W16       30.19S
COATESVILLE    SUNNY     27  18  69 W14       30.17R
POTTSTOWN      PTCLDY    28  16  60 W9G17     30.17R
BLUE BELL      CLEAR     30  18  59 W10G18    30.14R
DOYLESTOWN     PTCLDY    29  17  61 W9G17     30.12R
WILLOW GROVE   NOT AVBL
NORTH PHILA    CLEAR     31  17  56 W16       30.16R
PHILADELPHIA   PTCLDY    31  16  54 W12       30.19R
$$



USA.gov is the U.S. government's official web portal to all federal, state and local government web resources and services.